Temp
9 10 10 11 12 13 11 11 11 12 13 12 13 13 15 15 14 14 15 15 15 15 15 15 15 16 16 17 18 18 19 19 18 17 14 13 14 15 14 14 14 13 13 12
9 8 11 11 11 10 10 10 11 12 13 12 12 12 13 14 14 14 15 15 15 15 16 16 15 16 15 16 17 18 19 19 18 16 16 12 14 14 13 13 13 12 12 11
10 10 10 10 10 9 9 8 9 10 12 12 11 12 16 17 16 15 14 14 14 15 15 16 16 16 16 15 16 18 18 18 18 16 14 15 15 13 13 13 12 12 12 11
9 10 9 9 9 10 10 11 10 10 9 9 10 12 15 16 16 16 16 15 15 15 14 14 15 16 16 15 17 17 18 18 17 17 17 16 15 13 13 12 12 11 11 10
9 8 8 8 9 9 9 10 9 10 9 9 10 7 14 14 14 16 17 17 16 15 15 15 14 14 15 15 17 17 17 16 16 17 16 15 13 13 12 12 11 10 10 10
10 8 9 10 10 10 9 9 8 9 9 8 10 9 13 16 17 17 17 17 16 16 15 14 14 14 14 13 15 16 17 16 16 16 15 13 13 13 13 11 11 10 10 10
8 9 9 8 8 8 8 6 8 8 8 10 13 12 12 16 15 15 17 16 15 14 14 14 14 13 13 13 14 15 16 15 15 15 14 13 13 13 13 12 11 11 10 10
8 9 9 8 8 9 7 8 9 10 11 12 12 11 14 16 15 15 14 14 13 13 13 14 14 13 12 14 14 15 15 15 15 14 13 12 12 12 12 11 11 10 10 10
8 7 8 9 9 9 6 6 9 7 9 9 11 13 15 16 15 15 14 12 13 12 12 12 13 13 12 12 14 15 14 14 14 13 12 12 12 12 12 11 10 9 10 9
8 7 8 8 8 8 7 9 7 6 7 9 12 13 13 15 14 14 13 13 12 11 12 11 12 12 12 11 13 13 12 13 12 11 11 11 12 11 10 10 9 9 9 9
9 7 7 6 6 8 6 6 6 8 8 9 10 13 15 15 15 14 13 12 11 10 10 10 11 11 11 10 9 11 11 11 11 11 11 11 11 9 9 9 8 8 8 8
9 7 6 7 10 10 11 9 8 6 8 7 8 10 15 14 13 12 13 12 10 9 8 8 9 9 9 8 8 9 10 10 11 11 11 10 10 9 8 8 8 8 8 7
9 6 6 8 8 9 7 9 9 7 7 7 8 11 14 14 13 13 12 11 10 9 8 7 6 7 7 7 7 8 10 10 11 11 10 9 9 8 8 7 7 7 7 6
8 7 7 9 10 9 6 8 6 5 6 9 8 10 12 13 13 14 13 12 10 8 7 7 6 6 6 7 6 7 9 10 11 11 9 9 8 8 7 7 7 6 6 5
8 5 7 7 8 7 7 7 7 6 6 6 10 11 12 13 12 13 12 10 10 9 8 6 5 5 5 5 5 8 9 9 9 9 8 8 7 7 7 6 6 5 5 4
8 6 6 6 8 8 7 7 7 7 6 6 7 9 11 12 11 11 10 10 9 8 9 5 5 4 4 5 7 9 9 8 8 7 7 8 7 7 6 5 5 4 4 3
7 6 6 7 9 9 9 8 8 7 7 8 7 9 11 11 11 10 9 7 8 8 8 6 4 4 3 5 8 8 8 7 6 6 7 7 6 6 5 4 4 3 3 2
7 6 6 6 8 10 9 9 8 8 8 8 9 9 10 10 8 6 7 6 6 7 8 5 4 3 4 5 6 7 6 6 6 6 6 6 5 5 4 3 3 2 2 1
8 7 7 7 8 10 11 9 8 7 9 10 9 9 9 7 6 7 5 5 6 7 6 5 4 5 5 6 6 7 6 6 6 6 6 5 4 4 3 2 2 2 1 1
7 7 7 8 8 10 11 8 9 10 11 10 9 9 10 9 8 8 4 5 5 5 4 4 5 5 6 6 7 7 6 6 5 5 5 4 3 3 2 2 1 1 0 0
7 6 7 7 8 11 12 10 9 12 12 10 8 9 9 10 7 4 5 5 5 6 7 7 7 7 7 7 7 6 5 5 5 4 4 3 2 2 1 1 0 0 -0 -1
9 9 8 8 8 10 11 11 12 12 10 9 8 7 7 7 4 5 4 4 6 7 7 7 7 7 6 6 6 6 5 5 4 3 3 2 2 1 0 0 -0 -1 -1 -1
9 11 12 12 13 12 10 11 10 8 8 7 6 7 7 7 7 6 4 4 4 5 5 6 6 5 5 5 5 6 4 4 3 3 2 1 1 0 -0 -1 -1 -1 -1 -2
9 9 11 11 13 12 11 9 8 7 5 5 5 6 7 8 6 5 5 4 4 4 5 5 6 5 4 4 4 5 4 3 2 2 1 0 -0 -1 -1 -1 -1 -2 -2 -3
11 9 10 11 12 12 9 8 7 7 6 5 5 6 6 7 4 4 3 4 4 5 5 5 5 5 4 4 3 3 2 2 1 1 0 -0 -0 -1 -1 -2 -2 -3 -3 -4
9 11 12 13 12 11 10 7 7 6 6 5 6 4 4 4 3 3 3 3 4 4 4 5 4 4 3 3 3 2 1 1 1 1 -0 -1 -1 -2 -2 -2 -3 -3 -4 -4
Height
1488 1487 1484 1482 1484 1481 1487 1486 1485 1483 1481 1479 1469 1459 1459 1459 1456 1455 1453 1452 1451 1451 1453 1453 1455 1456 1457 1459 1463 1465 1467 1470 1472 1474 1477 1478 1480 1483 1487 1490 1495 1499 1501 1504
1488 1484 1478 1483 1485 1488 1489 1487 1483 1479 1478 1481 1468 1445 1453 1450 1441 1443 1442 1441 1441 1442 1443 1444 1446 1448 1450 1451 1455 1458 1461 1463 1466 1468 1470 1474 1475 1477 1481 1484 1489 1494 1498 1501
1474 1477 1478 1482 1483 1487 1488 1489 1487 1483 1476 1476 1470 1437 1425 1422 1427 1428 1430 1431 1431 1431 1433 1433 1435 1438 1441 1443 1446 1450 1454 1455 1458 1462 1464 1465 1468 1473 1476 1480 1485 1490 1494 1497
1477 1476 1480 1482 1482 1483 1480 1480 1483 1482 1483 1480 1474 1444 1423 1419 1419 1421 1421 1421 1420 1421 1423 1425 1425 1427 1430 1434 1438 1441 1445 1448 1450 1453 1457 1460 1462 1466 1473 1478 1481 1486 1492 1495
1472 1475 1478 1480 1479 1483 1481 1480 1481 1480 1479 1479 1468 1481 1414 1421 1419 1415 1414 1413 1413 1414 1415 1416 1415 1416 1420 1425 1428 1433 1437 1440 1443 1447 1450 1454 1459 1464 1467 1473 1478 1483 1488 1492
1470 1475 1476 1473 1476 1479 1481 1482 1482 1478 1479 1469 1452 1463 1410 1406 1402 1403 1408 1408 1408 1409 1409 1408 1408 1408 1410 1416 1419 1424 1428 1432 1437 1440 1444 1448 1453 1457 1462 1469 1474 1480 1485 1489
1468 1466 1471 1474 1477 1478 1481 1487 1473 1472 1471 1447 1430 1439 1410 1399 1404 1404 1401 1404 1404 1403 1402 1401 1401 1402 1402 1407 1411 1416 1421 1425 1430 1434 1439 1443 1449 1456 1461 1465 1471 1477 1482 1486
1462 1459 1463 1469 1469 1467 1474 1475 1464 1454 1439 1431 1434 1423 1399 1393 1399 1400 1404 1402 1401 1397 1393 1392 1392 1394 1395 1398 1404 1410 1415 1420 1424 1429 1434 1439 1447 1454 1459 1463 1468 1474 1479 1483
1462 1465 1463 1464 1464 1469 1473 1472 1465 1467 1452 1451 1427 1402 1391 1389 1391 1397 1398 1400 1398 1393 1388 1385 1385 1386 1388 1391 1397 1404 1410 1415 1420 1425 1430 1437 1443 1449 1456 1461 1467 1472 1476 1481
1459 1464 1460 1462 1466 1465 1465 1462 1467 1468 1451 1433 1405 1401 1393 1385 1388 1391 1395 1394 1395 1390 1384 1380 1379 1381 1382 1387 1392 1399 1407 1412 1416 1421 1427 1434 1442 1449 1455 1461 1466 1470 1475 1479
1458 1463 1460 1464 1459 1450 1461 1462 1461 1452 1442 1429 1414 1391 1378 1382 1382 1388 1391 1391 1390 1388 1382 1377 1375 1378 1379 1384 1389 1395 1402 1408 1414 1419 1425 1432 1439 1448 1454 1460 1464 1470 1474 1477
1455 1459 1457 1450 1440 1443 1439 1439 1445 1447 1431 1427 1420 1390 1381 1385 1388 1389 1387 1388 1387 1385 1380 1375 1375 1377 1378 1382 1386 1392 1399 1405 1412 1418 1424 1431 1439 1445 1452 1459 1464 1469 1472 1475
1452 1457 1450 1436 1438 1439 1441 1432 1430 1433 1430 1417 1412 1380 1375 1382 1385 1385 1385 1384 1384 1383 1379 1375 1376 1376 1379 1382 1387 1392 1398 1403 1411 1418 1424 1430 1437 1445 1452 1459 1464 1468 1470 1473
1451 1447 1443 1430 1424 1427 1436 1425 1428 1431 1422 1396 1393 1376 1379 1381 1381 1380 1378 1380 1381 1380 1377 1376 1377 1378 1380 1383 1387 1391 1396 1404 1411 1418 1425 1431 1438 1445 1452 1458 1463 1467 1469 1471
1448 1448 1442 1435 1427 1425 1422 1415 1411 1415 1406 1406 1369 1378 1370 1374 1376 1374 1376 1378 1376 1375 1376 1375 1377 1379 1381 1383 1386 1391 1399 1405 1413 1419 1426 1433 1440 1446 1452 1457 1462 1465 1467 1469
1444 1442 1439 1430 1419 1414 1409 1403 1398 1395 1395 1394 1390 1378 1373 1373 1372 1374 1374 1372 1373 1372 1373 1375 1376 1378 1381 1383 1387 1393 1401 1408 1415 1422 1428 1434 1441 1446 1452 1457 1461 1464 1466 1467
1439 1442 1441 1422 1411 1403 1393 1393 1391 1388 1386 1384 1384 1371 1370 1370 1371 1372 1371 1368 1369 1368 1371 1373 1375 1378 1381 1384 1389 1395 1402 1411 1418 1426 1431 1437 1442 1447 1452 1457 1460 1463 1464 1465
1433 1440 1441 1426 1414 1398 1392 1391 1389 1382 1380 1378 1374 1370 1369 1368 1371 1370 1367 1365 1363 1364 1366 1371 1375 1377 1381 1386 1393 1399 1407 1414 1422 1429 1434 1439 1444 1448 1453 1457 1460 1462 1463 1463
1431 1435 1433 1426 1412 1398 1389 1391 1388 1387 1378 1372 1368 1367 1367 1369 1370 1364 1362 1360 1358 1360 1366 1371 1374 1378 1384 1390 1397 1403 1411 1418 1426 1432 1436 1441 1445 1450 1454 1457 1460 1461 1461 1461
1427 1430 1433 1424 1416 1398 1386 1386 1384 1382 1371 1370 1368 1365 1365 1366 1363 1363 1364 1363 1363 1365 1368 1372 1377 1384 1390 1396 1403 1410 1416 1423 1428 1433 1437 1443 1447 1451 1454 1457 1459 1459 1459 1458
1421 1424 1423 1422 1418 1393 1381 1383 1382 1374 1375 1371 1370 1367 1367 1367 1370 1370 1366 1366 1367 1368 1371 1378 1385 1390 1396 1402 1408 1414 1420 1425 1430 1435 1440 1445 1448 1451 1454 1456 1458 1458 1457 1456
1409 1411 1413 1414 1410 1397 1381 1380 1379 1377 1374 1369 1370 1370 1370 1371 1372 1373 1372 1372 1372 1374 1379 1384 1389 1395 1400 1406 1412 1417 1423 1428 1433 1438 1442 1446 1449 1451 1454 1455 1456 1456 1455 1453
1405 1397 1394 1393 1382 1379 1380 1378 1377 1376 1374 1371 1369 1370 1371 1372 1371 1371 1375 1376 1378 1381 1384 1390 1395 1400 1406 1411 1417 1420 1426 1431 1435 1440 1443 1447 1449 1451 1453 1454 1454 1453 1452 1450
1398 1398 1394 1392 1377 1377 1377 1376 1375 1373 1371 1368 1367 1368 1369 1370 1372 1374 1377 1380 1382 1386 1389 1393 1398 1404 1409 1416 1422 1426 1430 1434 1438 1441 1445 1447 1449 1450 1452 1453 1452 1451 1449 1447
1393 1395 1390 1386 1376 1374 1376 1375 1374 1373 1371 1369 1368 1369 1371 1372 1374 1377 1379 1382 1386 1389 1393 1397 1402 1407 1413 1420 1426 1431 1434 1437 1440 1442 1444 1446 1448 1450 1451 1451 1450 1449 1446 1444
1390 1384 1383 1376 1376 1378 1377 1375 1374 1374 1373 1372 1371 1372 1374 1375 1377 1380 1383 1386 1389 1393 1397 1402 1407 1413 1419 1425 1429 1433 1437 1440 1441 1442 1444 1446 1448 1449 1450 1449 1447 1446 1443 1441
Wind_Speed
9 6 11 14 13 12 4 7 10 9 9 18 21 24 22 26 30 30 31 31 32 31 27 24 23 22 21 29 31 27 25 24 25 25 25 30 36 35 33 29 28 26 25 23
6 11 12 8 10 12 14 16 17 15 13 12 20 33 25 27 32 35 33 34 35 35 33 31 28 26 24 24 27 30 27 27 27 26 27 25 35 38 36 34 30 27 26 23
8 2 4 13 12 13 15 16 15 18 17 18 21 27 16 8 12 19 28 34 35 34 33 33 33 33 28 25 26 28 29 27 28 26 27 34 39 38 36 32 30 30 27 24
9 11 6 9 12 12 15 8 13 14 11 8 2 11 17 15 13 12 15 18 23 24 30 34 33 33 34 29 30 29 30 30 29 30 29 33 39 39 34 32 32 31 25 22
3 6 11 13 15 10 7 6 7 9 12 14 17 7 11 3 11 10 14 18 18 19 24 28 30 32 31 32 37 33 31 30 30 28 29 30 36 38 37 36 35 31 26 22
10 2 5 8 10 13 0 7 10 11 8 9 18 15 20 14 10 8 7 13 16 16 17 21 25 24 27 27 35 36 34 32 31 29 29 32 37 41 35 38 35 31 27 25
5 16 8 8 7 7 11 3 3 4 6 8 2 11 22 6 6 13 21 18 18 21 24 22 20 22 23 26 33 35 35 34 32 30 30 34 37 36 32 36 34 30 26 24
3 3 13 12 15 5 13 13 6 6 6 8 2 12 8 9 11 15 9 12 14 18 18 21 21 21 23 27 32 35 36 35 32 31 32 32 34 35 34 36 32 30 27 24
5 5 2 11 7 12 5 10 13 13 21 13 13 22 25 25 22 14 10 6 13 15 18 16 19 19 21 25 32 36 36 34 33 31 33 32 34 36 36 35 32 29 25 22
2 4 6 2 8 11 10 0 4 6 6 11 14 17 13 9 3 9 2 7 15 17 19 15 13 17 19 22 30 32 32 33 32 33 32 33 32 34 35 32 30 27 23 20
7 5 3 4 13 14 9 6 6 8 9 7 14 12 2 11 12 5 2 7 11 16 19 17 9 11 15 20 25 31 31 32 33 33 33 33 33 33 32 30 29 26 22 18
11 4 8 14 10 13 15 16 20 9 12 10 17 20 6 3 8 4 7 10 13 13 16 15 6 9 14 20 24 28 31 32 33 34 34 33 31 30 32 30 28 24 19 15
11 6 4 4 3 6 9 16 23 19 13 19 10 14 3 8 13 9 7 12 14 13 14 12 4 7 13 19 23 28 31 33 34 34 33 32 32 33 32 29 25 21 16 12
13 5 8 9 11 4 10 18 13 17 12 22 21 33 23 15 15 14 21 16 12 9 10 9 3 7 13 19 24 28 33 34 36 34 34 34 34 33 30 26 22 17 14 11
8 5 10 18 24 21 23 26 25 18 24 16 29 23 25 17 18 18 21 11 12 8 8 10 4 9 15 20 27 31 33 35 35 35 35 34 33 30 26 23 19 15 11 8
7 5 5 15 22 21 20 21 20 17 18 19 27 28 25 23 26 17 15 15 17 10 11 6 7 12 18 25 30 35 35 35 35 35 34 33 30 27 23 19 16 12 8 5
5 3 3 7 15 24 6 5 8 7 9 10 15 20 14 13 8 11 14 17 14 14 13 10 12 15 21 28 33 36 37 35 33 33 31 30 27 23 20 16 12 9 6 4
5 4 2 7 15 4 2 11 12 10 14 12 18 18 15 12 10 16 20 19 23 17 9 13 16 20 27 30 35 36 35 34 34 31 28 25 23 20 17 13 10 7 4 3
14 9 4 4 5 12 7 8 5 2 6 12 9 13 10 12 11 16 8 8 6 6 14 17 19 25 28 32 34 35 35 33 30 28 26 22 19 16 13 10 8 5 3 4
11 13 7 3 4 4 2 5 6 2 3 11 9 9 9 3 4 4 11 9 12 15 19 22 23 27 28 30 32 32 33 31 28 25 22 19 16 12 10 9 6 4 3 5
4 3 9 7 4 8 4 5 1 5 7 14 11 8 4 1 3 4 7 11 14 17 20 24 25 27 29 31 32 32 31 28 25 21 19 17 14 11 9 7 5 3 4 7
7 6 5 5 5 5 2 3 3 3 10 14 7 3 7 9 8 9 10 14 17 22 23 26 28 28 29 30 30 30 28 24 22 20 17 15 13 11 8 5 3 3 7 10
4 5 2 5 4 1 3 10 8 8 10 8 7 2 13 13 11 9 13 16 18 22 25 25 27 29 28 28 27 27 26 24 21 18 16 14 12 9 6 2 3 6 10 12
5 5 4 3 3 5 4 4 4 6 4 4 4 7 14 16 14 15 16 17 20 22 24 26 28 29 28 27 25 22 24 21 18 17 16 13 9 6 2 2 6 9 12 13
2 5 4 6 11 9 4 2 1 3 5 4 7 11 13 15 17 19 20 22 23 24 25 27 29 29 28 26 24 22 21 19 18 16 13 9 6 3 2 5 8 11 13 13
7 5 4 4 3 3 3 2 3 2 6 9 13 16 16 18 22 23 24 24 25 27 28 29 30 30 30 26 25 22 19 16 13 11 9 7 4 1 4 8 10 12 13 14
Wind_Direction
194 206 211 219 225 248 287 269 259 263 276 294 277 274 273 273 268 264 260 258 258 256 254 251 246 243 237 238 240 237 240 241 237 225 204 208 210 212 205 206 211 211 210 207
183 232 236 223 226 239 253 264 269 283 279 282 291 285 283 271 261 258 257 257 254 255 251 246 244 241 237 231 235 234 237 236 238 226 218 208 212 210 207 207 209 204 206 207
201 137 228 211 222 236 247 256 267 268 287 290 288 284 266 264 257 256 250 253 255 251 249 243 238 235 236 232 228 230 231 234 230 221 207 217 216 213 203 205 204 199 204 199
233 226 181 190 224 233 261 258 257 273 284 275 71 291 285 279 277 254 254 246 249 250 247 246 240 236 231 230 230 227 232 231 223 221 224 226 220 208 201 200 196 197 199 203
168 184 203 224 232 221 243 241 252 267 271 286 254 251 277 175 270 260 264 268 267 256 250 248 242 235 230 226 229 227 229 222 220 219 220 217 212 201 202 193 191 193 192 195
250 195 201 219 218 214 3 234 247 260 255 250 243 209 274 267 274 254 235 294 295 283 265 259 248 239 229 224 224 222 222 218 215 212 213 209 210 208 203 193 192 191 190 193
237 236 212 198 221 213 220 178 256 226 211 249 293 213 248 258 224 261 289 309 305 298 279 270 255 240 222 215 220 218 214 210 209 206 205 206 211 211 203 196 193 192 194 196
224 236 201 184 215 207 205 211 230 257 244 300 30 247 244 253 258 268 285 303 315 324 297 261 254 238 225 222 218 214 208 206 204 200 200 204 207 202 202 194 192 191 195 197
186 251 174 193 203 206 169 215 235 277 271 271 252 263 278 267 256 251 253 300 317 328 330 284 251 234 223 213 210 210 205 202 199 195 198 199 202 202 200 192 193 189 194 196
183 262 205 199 216 231 210 0 190 198 257 248 252 256 259 258 261 171 264 343 338 336 339 319 256 235 214 204 201 199 198 197 191 189 191 195 198 199 193 190 190 194 192 194
188 209 151 168 208 204 193 219 215 273 245 261 271 262 336 275 250 219 298 352 349 341 339 339 282 229 198 189 187 189 189 187 187 187 189 189 192 188 188 190 190 188 190 195
192 214 243 233 243 228 240 237 222 233 238 236 250 261 232 206 172 223 312 337 348 348 346 352 308 209 184 178 177 179 180 182 184 184 182 184 185 185 182 185 184 186 192 197
169 216 279 236 210 216 237 238 237 239 261 244 249 262 85 210 234 260 293 328 331 338 350 0 317 199 181 172 169 174 176 180 179 178 181 179 178 175 177 180 183 188 193 200
186 222 237 260 282 312 259 264 243 232 246 256 239 259 257 261 266 261 274 305 313 334 348 355 280 183 174 167 165 170 175 177 176 178 175 172 172 174 176 180 184 189 194 205
200 253 248 260 272 279 272 275 277 247 240 246 262 252 266 273 277 284 286 282 312 313 339 331 226 177 166 160 166 171 173 171 173 171 169 168 169 172 177 180 185 191 198 209
208 267 303 287 278 270 276 274 275 261 251 250 257 266 273 281 274 271 262 282 292 279 324 256 198 175 166 168 168 169 171 170 168 168 166 168 170 172 177 181 185 190 199 215
215 236 291 277 317 309 284 317 288 270 253 255 242 253 274 280 263 296 287 292 281 287 292 208 188 172 167 170 172 168 167 164 164 166 164 167 169 172 176 180 183 188 198 229
195 171 215 291 306 297 281 318 300 295 276 277 253 265 274 282 297 287 288 275 278 273 253 178 166 164 166 165 166 164 161 160 164 165 164 167 170 172 174 176 180 188 209 256
220 240 282 276 302 273 301 323 297 311 309 18 271 269 267 276 286 297 337 318 303 157 154 156 158 165 158 158 159 158 159 160 162 164 166 167 169 170 170 173 182 198 233 277
221 224 228 281 298 295 168 261 278 217 336 23 356 288 277 302 342 38 22 65 108 124 134 137 145 152 153 155 159 160 158 162 163 163 164 163 162 166 168 177 190 213 254 296
157 169 219 234 257 276 284 318 272 349 322 349 351 347 181 156 26 40 65 92 112 120 130 140 148 152 156 157 160 160 159 160 162 161 161 161 160 165 172 184 198 233 291 315
191 183 196 198 228 278 147 275 312 349 309 314 335 16 126 115 125 104 102 111 121 128 140 150 155 157 158 159 162 159 160 159 160 160 159 158 162 168 175 187 219 291 315 317
229 226 271 231 253 14 245 272 290 299 289 296 296 223 166 150 144 137 119 122 131 140 146 153 157 155 155 160 168 163 159 159 157 156 157 160 164 168 174 197 294 312 319 325
224 199 245 292 221 262 268 284 296 324 332 330 197 180 171 155 153 141 137 135 137 143 147 152 154 153 152 159 164 165 155 154 154 156 157 159 161 158 176 284 310 322 325 326
321 166 233 258 284 296 61 338 282 355 40 80 138 159 168 160 147 146 140 140 142 144 146 151 153 151 151 155 157 154 150 153 155 156 154 153 154 173 273 312 323 324 322 326
194 205 215 276 346 294 13 30 89 95 94 105 128 133 142 148 142 142 137 139 140 142 144 147 149 149 146 150 149 148 149 152 154 152 151 153 161 248 312 320 321 324 326 325